Location: Brompton
(51.4000°N, 0.5333°E)
Time: 12:01:25
(UTC+00:00)

Cosmos 1898 Rocket - Pass Details

Date: 29 September 2021
Orbit: 752 x 784 km, 74.0° (Epoch: 17 October)

Event Time Altitude Azimuth Distance (km) Brightness Sun altitude
Rises 18:52:06 0° 165° (SSE) 3,204 6.5 -12.1°
Reaches altitude 10° 18:54:49 10° 152° (SSE) 2,289 5.6 -12.5°
Maximum altitude 18:58:57 25° 99° (E) 1,523 4.4 -13.1°
Drops below altitude 10° 19:03:09 10° 46° (NE) 2,319 5.7 -13.8°
Sets 19:05:54 0° 33° (NNE) 3,257 6.6 -14.2°
